If you wish to contribute or participate in the discussions about articles you are invited to join SKYbrary as a registered user

 Actions

New Tanegashima Airport

From SKYbrary Wiki

RJFG
Airport
ICAO: RJFG – IATA: TNE
Summary
Name New Tanegashima Airport
Region Asia and Pacific
Territory Japan JP.gif
Location Nakatane, Kagoshima Prefecture
Serving Tanegashima
Elevation 234.086 m
768 ft234.086 m
Coordinates 30° 36' 33.04" N, 130° 59' 29.45" E
Runways
Designator Length Width Surface ROPS
13/31 1995 m6,545.276 ft
45 m147.638 ft
ASP /


METAR
Observation RJFG 120800Z 33003KT 9999 FEW030 17/11 Q1019
Station Tanegashima Airport
Date/Time 12 November 2019 08:00:00
Wind direction 330°
Wind speed 03 kts
Lowest cloud amount few clouds
Temperature 17°C
Dew point 11°C
Humidity 67%
QNH 1019 hPa
Weather condition n/a

New Tanegashima Airport, also known as Tanegashima Airport, is located in Nakatane, on Tanegashima, one of the Ōsumi Islands in southern Kagoshima Prefecture, Japan.

Climatology

Humid Sub-tropical climate (Köppen climate classification Cfa)

Maps

Terrain

Loading map...

Airport Layout

Loading map...


Accidents & Serious Incidents at or in vicinity of RJFG

None on SKYbrary